Bar Harbor, ME

4:56 AM EDT on October 21, 2019 (GMT -0400)
Hancock County-Bar Harbor

Weather History for KBHB - June, 2019

Change the Weather History Date:

Wednesday, June 12, 2019

  Actual Average Record
Temperature  
Mean Temperature 59 °F -  
Max Temperature 73 °F 72 °F 82 °F (1964)
Min Temperature 45 °F 47 °F 38 °F (1966)
Degree Days  
Heating Degree Days 6    
Growing Degree Days 9 (Base 50)    
Moisture  
Dew Point 45 °F    
Average Humidity 60    
Maximum Humidity 93    
Minimum Humidity 34    
Precipitation  
Precipitation 0.00 in - - ()
Sea Level Pressure  
Sea Level Pressure 30.08 in    
Wind  
Wind Speed 7 mph (WSW)    
Max Wind Speed 18 mph    
Max Gust Speed 23 mph    
Visibility 10 miles    
Events      
Averages and records for this station are not official NWS values.
T = Trace of Precipitation, MM = Missing Value Source: NWS Daily Summary

Daily Weather History Graph

Daily Weather History Graph

Search for Another Location

Airport or City:

Astronomy

Jun. 12, 2019 Rise Set
Actual Time 4:48 AM EDT 8:18 PM EDT
Civil Twilight 4:11 AM EDT 8:54 PM EDT
Nautical Twilight 3:23 AM EDT 9:43 PM EDT
Astronomical Twilight 2:21 AM EDT 10:45 PM EDT
Moon 3:08 PM EDT (6/12) 2:15 AM EDT (6/12)
Length of Visible Light 16h 43m
Length of Day
15h 29m
Waxing Gibbous, 76% of the Moon is Illuminated
Jun 12
Waxing Gibbous
Jun 17
Full
Jun 25
Last Quarter
Jul 2
New
Jul 9
First Quarter

Hourly Weather History & Observations

Time (EDT) Temp. Dew Point Humidity Pressure Visibility Wind Dir Wind Speed Gust Speed Precip Events Conditions
12:56 AM 54.0 °F 46.0 °F 75% 29.92 in 10.0 mi Variable 6.9 mph - N/A   Clear
1:56 AM 53.1 °F 45.0 °F 74% 29.94 in 10.0 mi NW 6.9 mph - N/A   Clear
2:56 AM 52.0 °F 43.0 °F 71% 29.96 in 10.0 mi Variable 4.6 mph - N/A   Clear
3:56 AM 48.0 °F 43.0 °F 83% 29.99 in 10.0 mi Calm Calm - N/A   Clear
4:56 AM 45.0 °F 43.0 °F 93% 30.01 in 10.0 mi Calm Calm - N/A   Clear
5:56 AM 51.1 °F 45.0 °F 80% 30.04 in 10.0 mi Variable 5.8 mph - N/A   Clear
6:56 AM 55.9 °F 46.0 °F 69% 30.07 in 10.0 mi NW 6.9 mph - N/A   Clear
7:56 AM 60.1 °F 46.0 °F 60% 30.09 in 10.0 mi NNW 11.5 mph 23.0 mph N/A   Clear
8:56 AM 62.1 °F 43.0 °F 50% 30.10 in 10.0 mi North 8.1 mph 20.7 mph N/A   Clear
9:56 AM 64.0 °F 42.1 °F 45% 30.10 in 10.0 mi North 9.2 mph 17.3 mph N/A   Clear
10:56 AM 66.0 °F 41.0 °F 40% 30.10 in 10.0 mi NNW 11.5 mph 18.4 mph N/A   Clear
11:56 AM 69.1 °F 42.1 °F 38% 30.11 in 10.0 mi NNW 9.2 mph - N/A   Clear
12:56 PM 70.0 °F 43.0 °F 38% 30.11 in 10.0 mi WSW 8.1 mph - N/A   Clear
1:56 PM 71.1 °F 44.1 °F 38% 30.10 in 10.0 mi WSW 8.1 mph - N/A   Clear
2:56 PM 73.0 °F 43.0 °F 34% 30.09 in 10.0 mi SSW 9.2 mph - N/A   Clear
3:56 PM 70.0 °F 48.9 °F 47% 30.09 in 10.0 mi South 15.0 mph - N/A   Clear
4:56 PM 69.1 °F 48.0 °F 47% 30.10 in 10.0 mi SSW 18.4 mph - N/A   Clear
5:56 PM 66.9 °F 46.9 °F 49% 30.10 in 10.0 mi SSW 13.8 mph - N/A   Clear
6:56 PM 64.0 °F 48.9 °F 58% 30.11 in 10.0 mi SSW 6.9 mph - N/A   Clear
7:56 PM 60.1 °F 46.9 °F 62% 30.12 in 10.0 mi SSW 11.5 mph - N/A   Clear
8:56 PM 57.9 °F 45.0 °F 62% 30.15 in 10.0 mi SSW 8.1 mph - N/A   Clear
9:56 PM 55.0 °F 46.0 °F 72% 30.17 in 10.0 mi SSW 5.8 mph - N/A   Clear
10:56 PM 55.0 °F 46.0 °F 72% 30.16 in 10.0 mi SW 6.9 mph - N/A   Clear
11:56 PM 53.1 °F 45.0 °F 74% 30.17 in 10.0 mi SSW 6.9 mph - N/A   Clear